Regional Weather Roundup
Issued by NWS Jackson, KY

Home | Current Version | Previous Version | Text Only | Print | Product List | Glossary Off
Versions: 1 2 3 4 5 6 7 8 9 10 11 12 13 14 15 16 17 18 19 20 21 22 23 24 25 26 27 28 29 30 31 32 33 34 35 36 37 38 39 40 41 42 43 44 45 46 47 48 49 50

000
ASUS43 KJKL 162205
RWRJKL

EAST KENTUCKY HOURLY WEATHER ROUNDUP
NATIONAL WEATHER SERVICE JACKSON KY
600 PM EDT TUE SEP 16 2014

NOTE: "FAIR" INDICATES FEW OR NO CLOUDS BELOW 12,000 FEET WITH
NO SIGNIFICANT WEATHER AND/OR OBSTRUCTIONS TO VISIBILITY.

* THESE REPORTS ARE NOT UNDER NWS QUALITY CONTROL AND MAY NOT
  REPORT WEATHER SUCH AS PRECIPITATION AND FOG.

KYZ079-080-083-085-087-088-110-112-115-119-120-162300
...EASTERN KENTUCKY...

CITY           SKY/WX    TMP DP  RH WIND       PRES   REMARKS
JACKSON        MOSUNNY   63  59  87 CALM      30.08F
LONDON         PTSUNNY   70  58  65 N12       30.07S
MONTICELLO*    SUNNY     74  58  57 NW7       30.07F
WILLIAMSBURG*  PTSUNNY   70  63  78 NW3       30.06S
MIDDLESBORO*   PTSUNNY   70  62  73 CALM      30.06F
HARLAN APT*    MOCLDY    72  59  64 MISG      30.05F
BLACK MTN*       N/A     64  57  77 NE2         N/A
PIKEVILLE APT* CLOUDY    61  59  94 N5        30.08S
BIG SANDY*     CLOUDY    62  59  90 N6        30.08S
MOREHEAD APT*  MOCLDY    64  57  77 N6        30.11S
$$

KYZ035-036-041-042-044-050-067-078-099-162300
...CENTRAL KENTUCKY...

CITY           SKY/WX    TMP DP  RH WIND       PRES   REMARKS
MT STERLING*   CLOUDY    64  57  77 NE9       30.10S
FLEMING/MASON* CLOUDY    62  54  75 N7        30.12S
DANVILLE*      MOSUNNY   68  54  60 NE8       30.09S
RICHMOND*      MOSUNNY   66  55  68 E7        30.08S
LEXINGTON      SUNNY     66  55  67 N12       30.09S
FRANKFORT      SUNNY     65  53  65 N9        30.09S
$$

KYZ091>093-OHZ055-061-077-WVZ005-015-034-035-042-162300
...SOUTHERN OHIO/WEST VIRGINIA...

CITY           SKY/WX    TMP DP  RH WIND       PRES   REMARKS
COVINGTON      CLOUDY    60  51  72 N7        30.12F
COLUMBUS       MOSUNNY   66  49  54 W3        30.10S
DAYTON         CLOUDY    61  50  67 CALM      30.13F
WILMINGTON     CLOUDY    59  50  72 N6        30.12S
HUNTINGTON     CLOUDY    62  56  80 N5        30.08F
CHARLESTON     CLOUDY    64  57  78 CALM      30.07F
PINEVILLE*     MOSUNNY   68  62  80 MISG      30.10S
BECKLEY        CLOUDY    61  55  81 N10       30.09S
BLUEFIELD      MOSUNNY   68  55  63 NW6       30.08F
$$

VAZ002-007-008-TNZ017-027-036-066-071-162300
...SOUTHWEST VIRGINIA/EAST TENNESSEE...

CITY           SKY/WX    TMP DP  RH WIND       PRES   REMARKS
WISE*          MOSUNNY   68  55  64 NW3       30.09S
JONESVILLE*    MOCLDY    73  61  64 CALM      30.06F
ABINGDON*      PTSUNNY   72  62  72 CALM      30.05F
BRISTOL        MOSUNNY   76  60  57 NW8       30.02F
KNOXVILLE      PTSUNNY   76  65  68 N10       30.01S
OAK RIDGE      PTSUNNY   77  64  64 VRB3      30.04S
CROSSVILLE     CLOUDY    68  63  84 N3        30.08F HAZE
NASHVILLE      PTSUNNY   74  60  61 N7        30.06F
$$

...KEY TO REMARKS...
VSB - VISIBILITY IN MILES
WCI - WIND CHILL INDEX
HX  - HEAT INDEX

$$


USA.gov is the U.S. government's official web portal to all federal, state and local government web resources and services.